Regional Weather Roundup
Issued by NWS

Home | Current Version | Previous Version | Graphics & Text | Print | Product List | Glossary On
Versions: 1 2 3 4 5 6 7 8 9 10 11 12 13 14 15 16 17 18 19 20 21 22 23 24 25 26 27 28 29 30 31 32 33 34 35 36 37 38 39 40 41 42 43 44 45 46 47 48 49 50
160
ASUS43 KDMX 300208
RWRIA

WEATHER ROUNDUP FOR IOWA
NATIONAL WEATHER SERVICE DES MOINES IA
900 PM CDT THU SEP 29 2016

NOTE: "FAIR" INDICATES FEW OR NO CLOUDS BELOW 12,000 FEET WITH NO
SIGNIFICANT WEATHER AND/OR OBSTRUCTIONS TO VISIBILITY.

* - THESE STATIONS ARE NOT NWS STATIONS...THUS NOT UNDER NWS
QUALITY CONTROL.  THEY ALSO DO NOT REPORT WEATHER SUCH
AS PRECIPITATION OR FOG.

IAZ001>003-012>014-020>022-031>034-043>046-300300-
   NORTHWEST IOWA

CITY           SKY/WX    TMP DP  RH WIND       PRES   REMARKS
CARROLL *      CLEAR     54  46  76 N7        30.34R
CHEROKEE *     CLEAR     53  48  85 CALM      30.36R
DENISON *      CLEAR     52  46  82 CALM      30.33R
LE MARS *      CLEAR     63  46  55 E9        30.35S
SHELDON *      CLEAR     50  46  87 E5        30.35R
SIOUX CITY     CLEAR     61  48  62 E8        30.33S
SPENCER        CLEAR     51  46  83 E5        30.36S
STORM LAKE *   CLEAR     55  48  76 NE7       30.36R
$$

IAZ055>058-069>071-079>083-090>094-300300-
   SOUTHWEST IOWA

CITY           SKY/WX    TMP DP  RH WIND       PRES   REMARKS
ATLANTIC *     CLEAR     52  46  82 N5        30.33S
AUDUBON *      CLEAR     50  46  87 CALM      30.35S
CLARINDA *       N/A     54  50  87 MISG      30.33S FOG
COUNCIL BLFS * CLEAR     61  45  55 NE10      30.33R
CRESTON *      CLEAR     59  48  67 N7        30.33R
HARLAN  *      CLEAR     54  46  76 CALM      30.37R
LAMONI         CLEAR     58  50  75 N7        30.30R
RED OAK *      CLEAR     55  48  76 CALM      30.33R
SHENANDOAH *   CLEAR     55  50  82 CALM      30.33R
$$

IAZ047>049-059>061-072>074-084-300300-
   CENTRAL IOWA

CITY           SKY/WX    TMP DP  RH WIND       PRES   REMARKS
AMES           CLEAR     58  49  72 N5        30.32R
ANKENY *         N/A    N/A N/A N/A MISG        N/A
BOONE *        CLEAR     59  46  63 N9        30.32R HAZE
CHARITON *       N/A     57  48  72 N8        30.29R
DES MOINES     CLEAR     64  47  53 N7        30.31R
GRINNELL*      CLEAR     63  47  56 NE8       30.31S
KNOXVILLE *    CLEAR     63  46  55 N7        30.28R
MARSHALLTOWN   CLEAR     60  49  66 NE10      30.31R
NEWTON *       CLEAR     63  46  55 NE10      30.30R
PELLA *        CLEAR     58  47  65 CALM      30.31R
PERRY *          N/A     59  49  69 N5        30.33R
$$

IAZ004>006-015-016-023>025-035-036-300300-
   NORTH CENTRAL IOWA

CITY           SKY/WX    TMP DP  RH WIND       PRES   REMARKS
ALGONA *       CLEAR     55  48  76 NE7       30.36S
CLARION *      CLEAR     54  48  82 NE6       30.35R
ESTHERVILLE    CLEAR     50  46  86 NE7       30.37R
FORT DODGE *   CLEAR     57  45  62 NE6       30.35S
MASON CITY     CLEAR     52  47  83 N7        30.37R
FOREST CITY *    N/A     55  46  71 N6        30.36R
WEBSTER CITY * CLEAR     55  48  76 N7        30.32R
IOWA FALLS *     N/A     59  48  67 NE5       30.35R
$$

IAZ007>011-017>019-026>030-037>042-050>054-066-300300-
   NORTHEAST IOWA

CITY           SKY/WX    TMP DP  RH WIND       PRES   REMARKS
CEDAR RAPIDS   CLEAR     59  51  75 N8        30.29R
CHARLES CITY * CLEAR     59  50  72 NE7       30.36R
CLINTON *      PTCLDY    63  54  72 NE9       30.27S
DECORAH *      CLEAR     61  54  77 N7        30.34S
DUBUQUE        CLEAR     61  49  64 NE10      30.30S
MONTICELLO *   PTCLDY    61  48  63 N3        30.29F
OELWEIN *      CLEAR     59  52  77 N8        30.33S
WATERLOO       CLEAR     56  49  77 N7        30.33R
$$

IAZ064-065-067-068-078-300300-
   EAST CENTRAL IOWA

CITY           SKY/WX    TMP DP  RH WIND       PRES   REMARKS
DAVENPORT      MOCLDY    63  53  70 NE7       30.26S
IOWA CITY      CLOUDY    64  49  57 N8        30.29R
MT. PLEASANT * CLOUDY    68  52  56 N7        30.26R
MUSCATINE *    CLOUDY    68  54  60 NE10      30.26S
QUAD CITIES    CLOUDY    66  53  63 NE6       30.26R
$$

IAZ062-063-075>077-085>089-095>099-300300-
   SOUTHEAST IOWA

CITY           SKY/WX    TMP DP  RH WIND       PRES   REMARKS
BURLINGTON     MOCLDY    66  55  67 NE13      30.24S
FAIRFIELD *    MOCLDY    63  46  55 N7        30.27R
FORT MADISON *   N/A     66  55  68 NE6       30.25S
KEOKUK *       CLOUDY    68  54  60 NE9       30.23R
OSKALOOSA *      N/A     59  47  64 NE8       30.29R
OTTUMWA        CLEAR     62  46  55 N8        30.28R
WASHINGTON *     N/A    N/A N/A N/A MISG        N/A
$$

ABBREVIATIONS USED IN REMARKS
   TC - TEMPERATURES IN CELSIUS
  WCI - WIND CHILL INDEX
   HX - HEAT INDEX
  VSB - VISIBILITY
$$





USA.gov is the U.S. government's official web portal to all federal, state and local government web resources and services.